Date String (YYYY-MM-DD hh:mm:ss) UTC,Instrument flags,Ambient pressure (hPa),Sample flow (lpm),Bypass flow (lpm),Sample temperature (°C),Ambient temperature (°C),ASC tube jacket temperature (°C),LED temperature (°C),Box temperature (°C),Sample RH (%),Span deviation,Mass concentration (μg/m³),Mass concentration (μg/m³),Mass concentration (μg/m³)
DateTimeUTC,F1_M11,P_M11,Q1_M11,Q2_M11,T1_M11,T2_M11,T3_M11,T4_M11,T5_M11,U1_M11,ZSPAN_M11,X0_M11,X2_M11,X1_M11
2021-12-21 16:00:00,,0823.0,4.98,0.00,22.1,21.5,00.0,31.1,23.9,07.6,0000.0,0013.14,0002.43,0000.87
2021-12-21 16:01:00,,0823.0,5.01,0.00,22.1,21.5,00.0,31.1,23.9,07.6,0000.0,0013.80,0002.57,0000.94
2021-12-21 16:02:00,,0823.1,5.00,0.00,22.2,21.6,00.0,31.1,23.9,07.6,0000.0,0013.07,0002.65,0000.98
2021-12-21 16:03:00,,0823.2,4.99,0.00,22.2,21.6,00.0,31.1,23.9,07.6,0000.0,0012.47,0002.81,0001.03
2021-12-21 16:04:00,,0823.2,5.02,0.00,22.2,21.6,00.0,31.1,23.9,07.6,0000.0,0012.27,0002.86,0001.05
2021-12-21 16:05:00,,0823.1,4.99,0.00,22.2,21.5,00.0,31.1,23.8,07.6,0000.0,0012.21,0002.86,0001.06
2021-12-21 16:06:00,,0823.1,5.01,0.00,22.2,21.5,00.0,31.1,23.9,07.6,0000.0,0011.58,0002.82,0001.06
2021-12-21 16:07:00,,0823.2,4.99,0.00,22.2,21.5,00.0,31.1,23.9,07.5,0000.0,0010.80,0002.86,0001.07
2021-12-21 16:08:00,,0823.3,5.00,0.00,22.2,21.6,00.0,31.1,23.9,07.5,0000.0,0010.97,0002.96,0001.08
2021-12-21 16:09:00,,0823.4,5.01,0.00,22.2,21.6,00.0,31.2,23.9,07.6,0000.0,0010.82,0003.00,0001.09
2021-12-21 16:10:00,,0823.4,4.98,0.00,22.2,21.6,00.0,31.2,23.9,07.6,0000.0,0010.75,0003.03,0001.10
2021-12-21 16:11:00,,0823.3,5.01,0.00,22.2,21.6,00.0,31.2,24.0,07.6,0000.0,0010.32,0002.99,0001.09
2021-12-21 16:12:00,,0823.2,5.00,0.00,22.3,21.7,00.0,31.2,24.0,07.6,0000.0,0010.10,0003.06,0001.09
2021-12-21 16:13:00,,0823.4,5.00,0.00,22.3,21.7,00.0,31.2,24.1,07.3,0000.0,0009.46,0003.00,0001.06
2021-12-21 16:14:00,,0823.5,5.00,0.00,22.3,21.7,00.0,31.2,24.1,07.6,0000.0,0009.35,0002.93,0001.05
2021-12-21 16:15:00,,0823.6,4.99,0.00,22.3,21.8,00.0,31.2,24.1,07.7,0000.0,0009.46,0002.90,0001.07
2021-12-21 16:16:00,,0823.4,5.01,0.00,22.4,21.8,00.0,31.2,24.2,07.7,0000.0,0010.25,0002.89,0001.09
2021-12-21 16:17:00,,0823.5,4.98,0.00,22.4,21.8,00.0,31.3,24.2,07.5,0000.0,0010.43,0002.87,0001.11
2021-12-21 16:18:00,,0823.7,5.01,0.00,22.4,21.8,00.0,31.3,24.2,07.5,0000.0,0011.01,0002.90,0001.11
2021-12-21 16:19:00,,0823.7,4.99,0.00,22.4,21.8,00.0,31.3,24.2,07.5,0000.0,0011.31,0002.87,0001.11
2021-12-21 16:20:00,,0823.7,5.00,0.00,22.5,21.9,00.0,31.3,24.3,07.5,0000.0,0011.57,0002.92,0001.12
2021-12-21 16:21:00,,0823.7,5.01,0.00,22.5,21.9,00.0,31.3,24.3,07.5,0000.0,0011.57,0002.83,0001.11
2021-12-21 16:22:00,,0823.8,5.00,0.00,22.5,21.9,00.0,31.3,24.3,07.4,0000.0,0011.75,0002.87,0001.11
2021-12-21 16:23:00,,0823.7,5.01,0.00,22.5,21.9,00.0,31.4,24.3,07.3,0000.0,0012.04,0002.80,0001.08
2021-12-21 16:24:00,,0823.7,4.99,0.00,22.6,22.0,00.0,31.4,24.4,07.3,0000.0,0012.75,0002.84,0001.08
2021-12-21 16:25:00,,0823.7,5.00,0.00,22.6,22.0,00.0,31.4,24.4,07.3,0000.0,0012.43,0002.83,0001.08
2021-12-21 16:26:00,,0823.7,5.01,0.00,22.6,22.0,00.0,31.4,24.4,07.2,0000.0,0011.87,0002.69,0001.05
2021-12-21 16:27:00,,0823.7,5.00,0.00,22.6,22.0,00.0,31.4,24.4,07.2,0000.0,0011.19,0002.63,0001.01
2021-12-21 16:28:00,,0823.7,5.01,0.00,22.5,21.9,00.0,31.4,24.3,07.1,0000.0,0010.68,0002.51,0000.97
2021-12-21 16:29:00,,0823.7,5.00,0.00,22.5,21.9,00.0,31.5,24.3,07.0,0000.0,0009.93,0002.30,0000.93
2021-12-21 16:30:00,,0823.8,5.00,0.00,22.5,21.9,00.0,31.5,24.3,07.0,0000.0,0009.42,0002.19,0000.90
2021-12-21 16:31:00,,0823.9,4.99,0.00,22.5,21.9,00.0,31.5,24.3,07.0,0000.0,0009.07,0002.08,0000.87
2021-12-21 16:32:00,,0824.0,5.00,0.00,22.6,21.9,00.0,31.5,24.4,07.0,0000.0,0009.34,0001.97,0000.82
2021-12-21 16:33:00,,0824.0,5.01,0.00,22.6,22.0,00.0,31.5,24.3,07.1,0000.0,0008.88,0001.88,0000.80
2021-12-21 16:34:00,,0824.1,4.98,0.00,22.6,22.0,00.0,31.5,24.3,07.0,0000.0,0008.39,0001.84,0000.78
2021-12-21 16:35:00,,0824.1,5.02,0.00,22.6,22.0,00.0,31.5,24.4,07.0,0000.0,0007.61,0001.74,0000.75
2021-12-21 16:36:00,,0824.1,4.99,0.00,22.6,22.0,00.0,31.5,24.3,06.9,0000.0,0007.16,0001.58,0000.71
2021-12-21 16:37:00,,0824.1,5.00,0.00,22.6,22.0,00.0,31.5,24.4,06.9,0000.0,0006.53,0001.51,0000.68
2021-12-21 16:38:00,,0824.0,5.01,0.00,22.6,22.1,00.0,31.5,24.4,07.0,0000.0,0005.91,0001.42,0000.66
2021-12-21 16:39:00,,0824.0,5.01,0.00,22.7,22.1,00.0,31.5,24.5,07.0,0000.0,0005.81,0001.37,0000.63
2021-12-21 16:40:00,,0824.1,4.99,0.00,22.7,22.1,00.0,31.5,24.5,07.0,0000.0,0006.44,0001.36,0000.62
2021-12-21 16:41:00,,0824.1,5.00,0.00,22.7,22.2,00.0,31.6,24.5,07.0,0000.0,0005.93,0001.32,0000.61
2021-12-21 16:42:00,,0824.1,5.02,0.00,22.7,22.2,00.0,31.6,24.6,06.9,0000.0,0005.83,0001.28,0000.58
2021-12-21 16:43:00,,0824.1,5.00,0.00,22.7,22.2,00.0,31.6,24.6,07.0,0000.0,0005.31,0001.30,0000.59
2021-12-21 16:44:00,,0824.1,5.00,0.00,22.7,22.2,00.0,31.6,24.6,07.0,0000.0,0006.26,0001.27,0000.58
2021-12-21 16:45:00,,0824.0,5.01,0.00,22.8,22.2,00.0,31.6,24.6,07.1,0000.0,0007.04,0001.25,0000.58
2021-12-21 16:46:00,,0824.1,4.99,0.00,22.8,22.3,00.0,31.6,24.6,07.0,0000.0,0007.89,0001.24,0000.59
2021-12-21 16:47:00,,0824.0,5.00,0.00,22.8,22.3,00.0,31.7,24.7,07.1,0000.0,0008.04,0001.23,0000.60
2021-12-21 16:48:00,,0824.1,4.99,0.00,22.8,22.3,00.0,31.7,24.7,07.1,0000.0,0008.37,0001.28,0000.61
2021-12-21 16:49:00,,0824.1,5.01,0.00,22.8,22.3,00.0,31.7,24.7,07.0,0000.0,0009.13,0001.37,0000.61
2021-12-21 16:50:00,,0824.0,4.99,0.00,22.9,22.3,00.0,31.7,24.7,07.1,0000.0,0009.21,0001.43,0000.62
2021-12-21 16:51:00,,0823.9,5.01,0.00,22.9,22.4,00.0,31.7,24.8,07.2,0000.0,0009.42,0001.49,0000.64
2021-12-21 16:52:00,,0823.9,5.00,0.00,22.9,22.4,00.0,31.7,24.8,07.2,0000.0,0009.87,0001.56,0000.67
2021-12-21 16:53:00,,0824.0,4.99,0.00,22.9,22.4,00.0,31.8,24.8,07.3,0000.0,0010.01,0001.64,0000.69
2021-12-21 16:54:00,,0824.0,5.01,0.00,23.0,22.5,00.0,31.8,24.9,07.2,0000.0,0010.35,0001.71,0000.71
2021-12-21 16:55:00,,0824.0,4.99,0.00,23.0,22.5,00.0,31.8,24.9,07.2,0000.0,0010.52,0001.82,0000.73
2021-12-21 16:56:00,,0824.1,5.00,0.00,23.0,22.5,00.0,31.8,24.9,07.1,0000.0,0010.33,0001.88,0000.74
2021-12-21 16:57:00,,0824.1,4.99,0.00,23.1,22.6,00.0,31.8,24.9,07.1,0000.0,0009.77,0001.89,0000.74
2021-12-21 16:58:00,,0824.0,5.00,0.00,23.1,22.6,00.0,31.9,25.0,07.2,0000.0,0010.05,0001.93,0000.75
2021-12-21 16:59:00,,0823.8,5.00,0.00,23.1,22.6,00.0,31.9,25.0,07.1,0000.0,0010.04,0001.89,0000.74
